{"data":{"norad_id":57375,"intl_designator":"2023-099AZ","name":"STARLINK-6363","alt_names":[],"object_type":"PAYLOAD","status":"ACTIVE","operator":null,"country":"US","launch_date":"2023-07-16","launch_site_code":"AFETR","launch_vehicle":null,"mission":null,"orbit_class":"UNKNOWN","rcs_meters":null,"size_class":null,"mass_kg":null,"dimensions":null,"purposes":["comms"],"wikipedia_slug":null,"has_3d_model":false,"image_url":null,"decayed_at":null,"tle_current":{"epoch":"2026-09-20T21:53:08.062368Z","epoch_age_seconds":88635,"freshness":"FRESH","line1":"1 57375U 23099AZ  26263.91189887 -.00000039  00000+0  80864-5 0  9993","line2":"2 57375  43.0012 219.3611 0000772 266.7954  93.2809 15.27574471176050","mean_motion":15.27574471,"eccentricity":7.72e-5,"inclination_deg":43.0012,"raan_deg":219.3611,"arg_perigee_deg":266.7954,"mean_anomaly_deg":93.2809,"bstar":8.0864e-6,"rev_number":17605,"period_min":94.267089908705,"perigee_km":482.53596705991,"apogee_km":483.59533674936,"semimajor_km":6861.2026519046,"source":"CELESTRAK","updated_at":"2026-09-21T09:00:33.621371Z"}}}